Mineral Wells, TX

10:25 AM CST on November 18, 2017 (GMT -0600)
Mineral Wells

Weather History for KMWL - November, 2013

Change the Weather History Date:

Wednesday, November 6, 2013

  Actual Average Record
Temperature  
Mean Temperature 54 °F -  
Max Temperature 66 °F 66 °F 82 °F (2004)
Min Temperature 41 °F 46 °F 35 °F (2010)
Degree Days  
Heating Degree Days 12    
Growing Degree Days 4 (Base 50)    
Moisture  
Dew Point 42 °F    
Average Humidity 73    
Maximum Humidity 100    
Minimum Humidity 36    
Precipitation  
Precipitation 0.06 in - - ()
Sea Level Pressure  
Sea Level Pressure 30.22 in    
Wind  
Wind Speed 11 mph (NNW)    
Max Wind Speed 22 mph    
Max Gust Speed 29 mph    
Visibility 7 miles    
Events Rain    
Averages and records for this station are not official NWS values.
T = Trace of Precipitation, MM = Missing Value Source: NWS Daily Summary

Daily Weather History Graph

Daily Weather History Graph

Search for Another Location

Airport or City:

Trip Planner

Search our weather history database for the weather conditions in past years. The results will help you decide how hot, cold, wet, or windy it might be!

Date:

Astronomy

Nov. 06, 2013 Rise Set
Actual Time 6:54 AM CST 5:36 PM CST
Civil Twilight 6:28 AM CST 6:02 PM CST
Nautical Twilight 5:59 AM CST 6:31 PM CST
Astronomical Twilight 5:30 AM CST 7:00 PM CST
Moon 10:06 AM CST (11/6) 8:46 PM CST (11/6)
Length of Visible Light 11h 33m
Length of Day
10h 42m
Waxing Crescent, 14% of the Moon is Illuminated
Nov 6
Waxing Crescent
Nov 9
First Quarter
Nov 17
Full
Nov 25
Last Quarter
Dec 2
New

Hourly Weather History & Observations

Time (CST) Temp. Windchill Dew Point Humidity Pressure Visibility Wind Dir Wind Speed Gust Speed Precip Events Conditions
12:53 AM 66.9 °F - 66.0 °F 97% 29.94 in 10.0 mi SSE 4.6 mph - N/A   Overcast
1:53 AM 66.9 °F - 66.0 °F 97% 29.95 in 9.0 mi WNW 3.5 mph - N/A   Overcast
2:01 AM 66.2 °F - 66.2 °F 100% 29.98 in 9.0 mi WNW 4.6 mph - N/A   Overcast
2:53 AM 57.9 °F - 55.9 °F 93% 30.00 in 10.0 mi NNW 18.4 mph - 0.01 in Rain Light Rain
3:41 AM 53.6 °F - 51.8 °F 94% 30.06 in 10.0 mi NNW 17.3 mph - 0.00 in Rain Light Rain
3:53 AM 53.1 °F - 52.0 °F 96% 30.03 in 10.0 mi North 20.7 mph 25.3 mph 0.00 in   Overcast
4:02 AM 53.6 °F - 51.8 °F 94% 30.04 in 10.0 mi North 17.3 mph - N/A   Overcast
4:21 AM 51.8 °F - 50.0 °F 94% 30.06 in 9.0 mi NNW 16.1 mph 26.5 mph 0.00 in Rain Light Rain
4:30 AM 51.8 °F - 50.0 °F 94% 30.06 in 10.0 mi NNW 11.5 mph - 0.00 in Rain Light Rain
4:53 AM 50.0 °F - 48.0 °F 93% 30.06 in 10.0 mi NNW 16.1 mph 21.9 mph 0.00 in   Overcast
5:10 AM 50.0 °F - 46.4 °F 87% 30.09 in 10.0 mi NNW 16.1 mph 25.3 mph N/A   Overcast
5:53 AM 48.0 °F - 45.0 °F 89% 30.11 in 10.0 mi NNW 11.5 mph - N/A   Mostly Cloudy
6:10 AM 48.2 °F - 44.6 °F 87% 30.14 in 10.0 mi NNW 12.7 mph - N/A   Mostly Cloudy
6:35 AM 48.2 °F - 46.4 °F 93% 30.16 in 10.0 mi NW 11.5 mph - N/A   Overcast
6:53 AM 48.0 °F - 43.0 °F 83% 30.15 in 10.0 mi NNW 18.4 mph - N/A   Mostly Cloudy
7:53 AM 46.0 °F 38.0 °F 42.1 °F 86% 30.19 in 7.0 mi NNW 21.9 mph 28.8 mph 0.01 in Rain Light Rain
8:28 AM 44.6 °F 36.6 °F 39.2 °F 81% 30.23 in 10.0 mi North 19.6 mph 26.5 mph 0.04 in   Mostly Cloudy
8:53 AM 46.0 °F 39.9 °F 39.9 °F 79% 30.23 in 10.0 mi NNW 13.8 mph 21.9 mph 0.04 in   Mostly Cloudy
9:53 AM 46.0 °F 39.6 °F 39.0 °F 76% 30.25 in 10.0 mi NNW 15.0 mph - N/A   Clear
10:53 AM 48.9 °F - 39.9 °F 71% 30.26 in 10.0 mi North 13.8 mph - N/A   Scattered Clouds
11:53 AM 53.1 °F - 39.9 °F 61% 30.25 in 10.0 mi NNW 16.1 mph - N/A   Clear
12:53 PM 57.9 °F - 39.0 °F 49% 30.24 in 10.0 mi NNW 16.1 mph 21.9 mph N/A   Clear
1:53 PM 59.0 °F - 36.0 °F 42% 30.23 in 10.0 mi NNW 13.8 mph 21.9 mph N/A   Clear
2:29 PM 60.8 °F - 35.6 °F 39% 30.25 in 2.0 mi North 16.1 mph 23.0 mph N/A   Haze
2:53 PM 61.0 °F - 35.1 °F 38% 30.24 in 2.0 mi North 13.8 mph - N/A   Haze
3:26 PM 60.8 °F - 33.8 °F 36% 30.26 in 1.5 mi North 15.0 mph 21.9 mph N/A   Haze
3:49 PM 60.8 °F - 35.6 °F 39% 30.26 in 3.0 mi North 12.7 mph 18.4 mph N/A   Haze
3:53 PM 60.1 °F - 36.0 °F 41% 30.25 in 4.0 mi North 15.0 mph 18.4 mph N/A   Haze
4:53 PM 57.9 °F - 35.1 °F 42% 30.26 in 4.0 mi North 12.7 mph - N/A   Haze
5:27 PM 55.4 °F - 35.6 °F 47% 30.28 in 2.0 mi North 6.9 mph - N/A   Haze
5:41 PM 51.8 °F - 37.4 °F 58% 30.29 in 5.0 mi NNW 6.9 mph - N/A   Haze
5:53 PM 51.1 °F - 37.0 °F 59% 30.29 in 4.0 mi North 5.8 mph - N/A   Haze
6:53 PM 46.9 °F - 37.0 °F 68% 30.31 in 9.0 mi NNW 8.1 mph - N/A   Clear
7:53 PM 46.9 °F - 36.0 °F 66% 30.32 in 10.0 mi Calm Calm - N/A   Clear
8:50 PM 44.6 °F 43.1 °F 35.6 °F 71% 30.35 in 2.0 mi North 3.5 mph - N/A   Haze
8:53 PM 45.0 °F 43.5 °F 36.0 °F 71% 30.35 in 2.0 mi North 3.5 mph - N/A   Haze
9:24 PM 42.8 °F 39.3 °F 35.6 °F 76% 30.36 in 3.0 mi North 5.8 mph - N/A   Haze
9:40 PM 42.8 °F 39.3 °F 35.6 °F 76% 30.36 in 2.0 mi North 5.8 mph - N/A   Haze
9:53 PM 43.0 °F 39.5 °F 36.0 °F 76% 30.37 in 2.0 mi North 5.8 mph - N/A   Haze
10:09 PM 42.8 °F 40.1 °F 35.6 °F 76% 30.37 in 7.0 mi NNW 4.6 mph - N/A   Clear
10:53 PM 41.0 °F 38.0 °F 35.1 °F 79% 30.38 in 3.0 mi North 4.6 mph - N/A   Haze
11:01 PM 41.0 °F 39.0 °F 35.6 °F 81% 30.38 in 2.5 mi North 3.5 mph - N/A   Haze
11:17 PM 42.8 °F 41.1 °F 33.8 °F 70% 30.38 in 3.0 mi North 3.5 mph - N/A   Haze
11:45 PM 41.0 °F - 33.8 °F 76% 30.38 in 2.0 mi Calm Calm - N/A   Haze
11:53 PM 41.0 °F - 34.0 °F 76% 30.38 in 3.0 mi Calm Calm - N/A   Haze